IRNSS-1D (40547 NORAD) Tracking and Keplerian Element Data

This shows tracking and keplerian element data for the satellite.

Feedback or suggestion? Click here.




ElementValue
Catalog40547
NameIRNSS-1D
Epoch Orbit3484
Epoch Day286.78649565
Epoch Year2024
RAAN250.6694
Inclination27.2575
Eccentricity0.001839
Argument of Perigee193.4391
Mean Anonmoly332.4791
Mean Motion1.00265616
Decay Rate-2.93E-06
L11 40547U 15018A 24286.78649565 -.00000293 00000+0 00000+0 0 9990
L22 40547 27.2575 250.6694 0018390 193.4391 332.4791 1.00265616 34848



Live tracking and technical data element details for IRNSS-1D (NORAD 40547). IRNSS-1D can be tracked NOW for your location showing map with azimuth and elevation plus other details from your city location.







IsCatalogInMostPopularTable: catalog: 40547, numindb: 598
Update: records affected: 1



GetName: 40547 IRNSS-1D

Hit Count: updated at: Tue, 03 Dec 2024 03:35:51 GMT